This demonstration page uses our WeatherBlox Daily Observations layout. Learn more.

Left ArrowRight Arrow

Hourly Observations for June 21, 2020

Temp ( °F °C ) Dew Point ( °F °C ) Humidity (%) Winds ( mph kmh ) Pressure ( in mb ) Visibility ( mi km ) Precip ( " mm )
12:53 am 00:53 Cloudy 59 15 55 12.8 87 87 SSW 7 11 29.80 1009 10 16 0.08 2.03
1:53 am 01:53 Clear 59 15 53 11.7 81 81 SSW 10 17 29.78 1009 10 16 N/A
2:53 am 02:53 Mostly Clear 59 15 52 11.1 78 78 SW 12 19 29.78 1008 10 16 N/A
3:53 am 03:53 Clear 58 14.4 51 10.6 78 78 SW 9 15 29.78 1008 10 16 N/A
4:53 am 04:53 Cloudy 59 15 51 10.6 75 75 SW 9 15 29.78 1009 10 16 N/A
5:53 am 05:53 Mostly Sunny 59 15 51 10.6 75 75 SW 9 15 29.80 1009 10 16 N/A
6:53 am 06:53 Mostly Cloudy 60 15.6 52 11.1 75 75 SW 13 20 29.80 1009 10 16 N/A
7:53 am 07:53 Partly Cloudy 62 16.7 52 11.1 70 70 SW 14 22 29.80 1009 10 16 N/A
8:53 am 08:53 Partly Cloudy 64 17.8 53 11.7 68 68 SW 16 26 29.80 1009 10 16 N/A
9:53 am 09:53 Cloudy 68 20 51 10.6 55 55 WNW 14 22 29.80 1009 10 16 N/A
10:53 am 10:53 Cloudy 68 20 51 10.6 55 55 NNW 12 19 29.82 1010 10 16 N/A
11:53 am 11:53 Cloudy 71 21.7 53 11.7 53 53 NW 8 13 29.83 1010 10 16 N/A
12:53 pm 12:53 Mostly Cloudy 74 23.3 54 12.2 50 50 W 14 22 29.83 1010 10 16 N/A
1:53 pm 13:53 Partly Cloudy 75 23.9 54 12.2 48 48 VRB 6 9 29.82 1010 10 16 N/A
2:27 pm 14:27 Mostly Cloudy with Nearby Thunderstorms 76 24.4 54 12.2 47 47 VRB 6 9 29.71 1006 10 16 N/A
2:44 pm 14:44 Mostly Cloudy with Thunderstorms 75 23.9 53 11.7 46 46 N N/A 29.72 1006 10 16 N/A
2:53 pm 14:53 Mostly Cloudy with Thunderstorms 63 17.2 55 12.8 76 76 NNE 35 56 29.85 1011 7 11 N/A
3:00 pm 15:00 Windy with Storms Likely 60 15.6 56 13.3 86 86 NE 22 35 29.82 1010 5 8 0.00 0.00
3:21 pm 15:21 Mostly Cloudy with Nearby Thunderstorms 65 18.3 58 14.4 78 78 E 10 17 29.79 1009 10 16 0.01 0.25
3:39 pm 15:39 Mostly Sunny 69 20.6 58 14.4 68 68 ENE 7 11 29.76 1008 10 16 0.01 0.25
3:53 pm 15:53 Sunny 72 22.2 58 14.4 61 61 NE 8 13 29.83 1010 10 16 0.01 0.25
4:53 pm 16:53 Sunny 76 24.4 55 12.8 48 48 ENE 6 9 29.83 1010 10 16 N/A
5:53 pm 17:53 Sunny 76 24.4 53 11.7 45 45 NNE 9 15 29.84 1010 10 16 N/A
6:53 pm 18:53 Sunny 76 24.4 53 11.7 45 45 NNE 8 13 29.84 1010 10 16 N/A
7:53 pm 19:53 Mostly Sunny 72 22.2 54 12.2 53 53 NE 6 9 29.85 1011 10 16 N/A
8:53 pm 20:53 Cloudy with Nearby Thunderstorms 69 20.6 57 13.9 66 66 S 3 6 29.88 1012 10 16 0.00 0.00
9:04 pm 21:04 Cloudy with Thunderstorms 64 17.8 51 10.6 63 63 WSW 20 31 29.88 1012 10 16 N/A
9:16 pm 21:16 Cloudy with Thunderstorms 60 15.6 51 10.6 72 72 SSW 17 28 29.91 1013 10 16 N/A
9:28 pm 21:28 Cloudy with Strong Thunderstorms 55 13 52 11 88 88 S 15 24 29.94 1014 4 6 N/A
9:53 pm 21:53 Cloudy with Nearby Thunderstorms 58 14.4 55 12.8 90 90 S 14 22 29.94 1014 10 16 0.27 6.86
10:24 pm 22:24 Partly Cloudy 58 14.4 56 13.3 93 93 S 9 15 29.93 1013 10 16 N/A
10:53 pm 22:53 Clear 58 14.4 56 13.3 93 93 SSE 8 13 29.94 1014 10 16 N/A
11:53 pm 23:53 Clear 57 13.9 54 12.2 90 90 W 3 6 29.94 1014 10 16 N/A

Powered by AerisWeather